Change the Weather History Date:

Saturday, June 30, 2012

  Actual Average Record
Temperature  
Mean Temperature 86 °F 82 °F  
Max Temperature 98 °F 93 °F 110 °F (1907)
Min Temperature 74 °F 71 °F 63 °F (1985)
Degree Days  
Heating Degree Days 0 0  
Month to date heating degree days 0 0  
Since 1 June heating degree days 0 1  
Since 1 July heating degree days 2089 2559  
Cooling Degree Days 21 17  
Month to date cooling degree days 534 435  
Year to date cooling degree days 1199 832  
Since 1 June cooling degree days 534 435  
Growing Degree Days 36 (Base 50)    
Moisture  
Dew Point 63 °F    
Average Humidity 56    
Maximum Humidity 84    
Minimum Humidity 27    
Precipitation  
Precipitation 0.00 in 0.08 in 2.29 in (1953)
Month to date precipitation 2.11 3.56  
Year to date precipitation 10.97 12.50  
Sea Level Pressure  
Sea Level Pressure 29.81 in    
Wind  
Wind Speed 13 mph (SSE)    
Max Wind Speed 24 mph    
Max Gust Speed 33 mph    
Visibility 10 miles    
Events      
T = Trace of Precipitation, MM = Missing Value Source: NWS Daily Summary

Daily Weather History Graph

Daily Weather History Graph

Search for Another Location

Airport or City:

Trip Planner

Search our weather history database for the weather conditions in past years. The results will help you decide how hot, cold, wet, or windy it might be!

Date:

Astronomy

Jun. 30, 2012 Rise Set
Actual Time 6:35 AM CDT 8:49 PM CDT
Civil Twilight 6:06 AM CDT 9:18 PM CDT
Nautical Twilight 5:32 AM CDT 9:52 PM CDT
Astronomical Twilight 4:54 AM CDT 10:30 PM CDT
Moon 5:50 PM CDT (6/30) 3:27 AM CDT (6/30)
Length of Visible Light 15h 11m
Length of Day
14h 14m
Waxing Gibbous, 87% of the Moon is Illuminated
Jun 30
Waxing Gibbous
Jul 3
Full
Jul 10
Last Quarter
Jul 18
New
Jul 26
First Quarter

Hourly Weather History & Observations

Time (CDT) Temp. Heat Index Dew Point Humidity Pressure Visibility Wind Dir Wind Speed Gust Speed Precip Events Conditions
12:52 AM 81.0 °F 82.2 °F 63.0 °F 54% 29.83 in 10.0 mi SSE 16.1 mph - N/A   Clear
1:52 AM 79.0 °F - 63.0 °F 58% 29.82 in 10.0 mi SSE 16.1 mph - N/A   Clear
2:52 AM 78.1 °F - 63.0 °F 60% 29.81 in 10.0 mi South 10.4 mph - N/A   Clear
3:52 AM 75.9 °F - 64.0 °F 67% 29.81 in 10.0 mi South 11.5 mph - N/A   Clear
4:52 AM 75.0 °F - 64.9 °F 71% 29.82 in 10.0 mi South 9.2 mph - N/A   Clear
6:52 AM 73.9 °F - 68.0 °F 82% 29.83 in 10.0 mi SSE 10.4 mph - N/A   Clear
7:52 AM 75.9 °F - 69.1 °F 79% 29.84 in 10.0 mi South 6.9 mph - N/A   Clear
8:52 AM 80.1 °F 82.9 °F 69.1 °F 69% 29.84 in 10.0 mi South 10.4 mph - N/A   Clear
9:52 AM 82.0 °F 85.5 °F 69.1 °F 65% 29.85 in 10.0 mi SSW 11.5 mph - N/A   Clear
10:52 AM 87.1 °F 91.3 °F 69.1 °F 55% 29.85 in 10.0 mi SSE 9.2 mph - N/A   Clear
11:52 AM 90.0 °F 94.5 °F 69.1 °F 50% 29.85 in 10.0 mi SSE 11.5 mph 18.4 mph N/A   Clear
12:52 PM 91.9 °F 93.3 °F 64.0 °F 39% 29.84 in 10.0 mi SE 10.4 mph 17.3 mph N/A   Partly Cloudy
1:52 PM 93.9 °F 93.2 °F 59.0 °F 31% 29.82 in 10.0 mi SE 12.7 mph - N/A   Partly Cloudy
2:52 PM 96.1 °F 96.0 °F 60.1 °F 30% 29.81 in 10.0 mi SE 16.1 mph 21.9 mph N/A   Scattered Clouds
3:52 PM 96.1 °F 94.8 °F 57.0 °F 27% 29.78 in 10.0 mi SE 8.1 mph 17.3 mph N/A   Partly Cloudy
4:52 PM 97.0 °F 95.7 °F 57.0 °F 26% 29.77 in 10.0 mi SE 16.1 mph 24.2 mph N/A   Clear
5:52 PM 97.0 °F 96.1 °F 57.9 °F 27% 29.75 in 10.0 mi SE 17.3 mph - N/A   Partly Cloudy
6:52 PM 95.0 °F 94.0 °F 57.9 °F 29% 29.75 in 10.0 mi ESE 17.3 mph 24.2 mph N/A   Partly Cloudy
7:52 PM 93.0 °F 92.7 °F 60.1 °F 33% 29.75 in 10.0 mi SE 17.3 mph - N/A   Clear
8:52 PM 90.0 °F 90.6 °F 63.0 °F 40% 29.78 in 10.0 mi ESE 15.0 mph - N/A   Clear
9:52 PM 87.1 °F 87.8 °F 63.0 °F 44% 29.80 in 10.0 mi SE 12.7 mph - N/A   Clear
10:52 PM 84.9 °F 86.1 °F 64.0 °F 49% 29.81 in 10.0 mi SE 12.7 mph - N/A   Clear
11:52 PM 82.0 °F 84.1 °F 66.0 °F 58% 29.82 in 10.0 mi SSE 17.3 mph 31.1 mph N/A   Clear